Regional Weather Roundup
Issued by NWS Pendleton, OR

Home | Current Version | Previous Version | Text Only | Print | Product List | Glossary On
Versions: 1 2 3 4 5 6 7 8 9 10 11 12 13 14 15 16 17 18 19 20 21 22 23 24 25 26 27 28 29 30 31 32 33 34 35 36 37 38 39 40 41 42 43 44 45 46 47 48 49 50
000
ASUS46 KPDT 210210
RWRPDT
PENDLETON REGIONAL WEATHER ROUNDUP
NATIONAL WEATHER SERVICE PENDLETON OREGON
600 PM PST SAT DEC 20 2014

NOTE: FAIR INDICATES FEW OR NO CLOUDS BELOW 12,000 FEET WITH NO
SIGNIFICANT WEATHER AND/OR OBSTRUCTIONS TO VISIBILITY.

# INDICATES UNOFFICIAL STATION AND DATA

WAZ520-210310-
EAST SLOPES OF WASHINGTON CASCADES

CITY            SKY/WX      TMP DP  RH  WIND    PRES   REMARKS
#BULLFROG 2SW   N/A         35  35  100 CALM    27.18S
#BUMPING DAM    N/A         33  N/A N/A CALM    N/A
#CLE ELUM HS    N/A         34  32  92  CALM    29.56F
#CLE ELUM 2NW   N/A         32  32  100 CALM    N/A
#CLE ELUM LAKE  N/A         32  32  100 CALM    29.61S
#CLIFFDEL 2NW   N/A         32  31  96  CALM    N/A
#EASTON DOT     N/A         33  33  100 S18G28  N/A    WCI 22
#GLENWOOD       N/A         38  38  100 CALM    29.66F
#MANASTASH CYN  N/A         33  31  92  CALM    29.55F
#NELSON         N/A         32  31  96  CALM    29.63S
#NELSON 3SW     N/A         31  30  96  CALM    29.82S
#NILE           N/A         35  34  96  CALM    28.88F
#RONALD 2NW     N/A         33  32  96  N1      29.45S
#SNOWDEN        N/A         41  39  93  CALM    N/A
#SOUTH BLEWITT  N/A         34  33  96  CALM    N/A
#TEANAWAY 4NE   N/A         34  34  100 W1      N/A
#TROUT LAKE HS  N/A         38  38  100 NW3     N/A
#TROUT LAKE 1NE N/A         36  35  96  CALM    29.67F
$$

WAZ521-210310-
SIMCOE HIGHLANDS

CITY            SKY/WX      TMP DP  RH  WIND    PRES   REMARKS
#BICKLETON HS   N/A         42  42  100 W14     34.25S WCI 35
#SATUS PASS DOT N/A         41  39  93  CALM    N/A
#CENTERVILLE 4W N/A         45  44  96  W6      29.38F
#CENTERVILLE 1SWN/A         44  41  89  W6      29.61F
#GOLDENDALE     N/A         44  44  100 CALM    N/A
#GOLDENDALE 1NE N/A         44  44  100 CALM    N/A
#GOLDENDALE 1S  N/A         43  42  96  CALM    29.62S
#GOLDENDALE 5WNWN/A         45  43  93  CALM    29.64F
#GOODNOE HILLS  N/A         46  42  86  W9      N/A
#LYLE 6NE       N/A         39  39  100 CALM    29.60F
$$

WAZ026-210310-
KITTITAS VALLEY

CITY            SKY/WX      TMP DP  RH  WIND    PRES   REMARKS
ELLENSBURG AP   LGT RAIN    41  38  89  CALM    29.55F FOG
#ELLENSBURG CWU N/A         39  38  96  CALM    29.55F
#ELLENSBURG 3NE N/A         39  38  96  CALM    29.58F
#ELLENSBURG     N/A         42  42  100 CALM    N/A
#ELLENSBURG 1E  N/A         38  37  96  CALM    N/A
#KITTITAS 3S    N/A         38  37  96  CALM    29.59F
#THORP 6N       N/A         37  37  100 SE5     29.61F
$$

WAZ027-210310-
YAKIMA VALLEY

CITY            SKY/WX      TMP DP  RH  WIND    PRES   REMARKS
YAKIMA AIRPORT  LGT RAIN    42  39  89  CALM    29.59F FOG
YAKIMA-VAGABOND LGT RAIN    40  39  96  N2      29.58F FOG
#DONALD 2NE     N/A         41  41  100 E1      28.45F
#GRANDVIEW      N/A         49  43  80  S2      29.62F
#MABTON         N/A         44  41  89  SW1     29.59F
#MOXEE 2E       N/A         38  38  100 CALM    29.94
#NACHES 2SW     N/A         39  38  96  CALM    29.58F
#TERRACE HTS    N/A         40  39  96  CALM    29.58F
#WAPATO 4NE     N/A         41  41  100 CALM    28.44F
#WEST VALLEY    N/A         40  39  96  CALM    29.60F
#W YAKIMA       N/A         41  39  93  CALM    29.62F
#WHITE SWAN 5E  N/A         40  39  96  CALM    29.63F
#WILEY CITY 3W  N/A         38  35  89  CALM    29.60F
$$

WAZ028-210310-
LOWER COLUMBIA BASIN...WASHINGTON

CITY            SKY/WX      TMP DP  RH  WIND    PRES   REMARKS
PASCO           LGT RAIN    51  44  77  S7      29.62F
PROSSER AWOS    N/A         50  45  83  S3      29.63
RICHLAND AWOS   LGT DRIZZLE 48  45  89  SE3     29.62F
#BASIN CITY 5SW N/A         47  45  93  CALM    29.61F
#BENTON CITY    N/A         48  44  86  SW12    29.53F WCI 43
#CONNELL 5N     N/A         45  43  93  S3      29.63F
#CONNELL 5NW    N/A         46  44  93  S6      29.59S
#ELTOPIA        N/A         47  46  96  CALM    29.58F
#ELTOPIA 6NW    N/A         46  45  96  SW5     28.59S
#KAHLOTUS       N/A         47  44  89  W9      29.63F
#KENNEWICK      N/A         35  35  100 CALM    27.18S
#KENNEWICK 3S   N/A         50  45  83  S10     29.60F
#PASCO-BROADMOORN/A         48  44  86  SW1     29.52F
#PATERSON       N/A         43  42  96  CALM    29.62F
#PROSSER DOT    N/A         49  44  83  W6      N/A
#PROSSER        N/A         46  42  86  NW2     29.61F
#SAGEMOOR 2W    N/A         46  44  93  S3      29.47F
#TOUCHET 2S     N/A         52  45  77  S16G28  29.60F
#WEST PASCO     N/A         50  46  86  E1      29.59F
$$

WAZ029-210310-
FOOTHILLS OF THE BLUES...WASHINGTON

CITY            SKY/WX      TMP DP  RH  WIND    PRES   REMARKS
WALLA WALLA AP  LGT RAIN    52  43  71  S20     29.65F
#COLLEGE PLACE  N/A         50  38  63  SE10    29.66F
#DAYTON SCHOOL  N/A         48  39  71  SE9     29.67F
#LOWDEN 2SE     N/A         52  45  77  SE12    29.61F
#PLEASANT VIEW 1N/A         45  43  93  SE22G30 29.67F WCI 37
#PRESCOTT       N/A         51  46  83  S8      29.65F
#SUDBURY        N/A         52  N/A N/A CALM    N/A
#WHITMAN COLLEGEN/A         51  44  77  S6      29.70F
#WAITSBURG 5S   N/A         47  42  83  S22G30  29.74F WCI 39
#WALLA WALLA 5E N/A         52  44  74  S21     N/A
#WALLA WALLA U  N/A         51  45  80  S6      29.66F
#WHITMAN MISSIONN/A         52  46  80  S5G25   29.67F
$$

WAZ030-210310-
BLUE MOUNTAINS...WASHINGTON

CITY            SKY/WX      TMP DP  RH  WIND    PRES   REMARKS
#DIXIE 5SE      N/A         43  37  79  S21G29  29.57F WCI 34
$$

ORZ009-041-WAZ024-210310-
COLUMBIA RIVER GORGE

CITY            SKY/WX      TMP DP  RH  WIND    PRES   REMARKS
HOOD RIVER AP   LGT RAIN    41  41  100 CALM    29.64F
THE DALLES AP   LGT RAIN    43  41  93  CALM    29.63F
#ARLINGTON AIRPON/A         44  43  96  W3      30.01S
#ARLINGTON HS   N/A         43  42  96  CALM    29.53F
#CELILO DOT     N/A         43  41  93  CALM    N/A
#LYLE           N/A         43  42  96  CALM    29.66F
#MARYHILL       N/A         41  N/A N/A CALM    N/A
#MARYHILL 2W    N/A         42  42  100 CALM    N/A
#MOSIER 1S      N/A         40  40  100 CALM    29.67S
#MURDOCK        N/A         43  43  100 NW3     29.68F
#RUFUS DOT      N/A         44  41  89  CALM    N/A

$$

ORZ510-210310-
NORTH CENTRAL OREGON

CITY            SKY/WX      TMP DP  RH  WIND    PRES   REMARKS
#CHENOWITH 1W   N/A         39  39  100 N2      N/A
#COW CYN RST AREN/A         46  43  89  S10     N/A
#DUFUR 9E       N/A         46  45  96  S30G43  29.68F WCI 37
#GRASS VALLEY   N/A         44  44  100 S9      N/A
#GRASS VALLEY 1SN/A         45  44  96  SW17G26 29.68F WCI 38
#KENT DOT       N/A         46  39  76  S23G30  N/A    WCI 38
#MAUPIN SCHOOL  N/A         47  45  93  CALM    29.67F
#MORO SCHOOL    N/A         48  47  96  S7      29.66S
#SHANIKO 5WSW   N/A         43  39  86  S22     N/A    WCI 34
#SHANIKO 4NW    N/A         43  41  93  S16G37  29.68S WCI 35
#TYGH VALLEY 2NEN/A         48  45  89  CALM    29.67F
#WAPANITIA AIRPON/A         48  45  89  SW2     29.70F
#WASCO DOT      N/A         47  43  86  W7      N/A
#WASCO 5NE      N/A         47  44  89  SW8     29.65F
$$

ORZ511-210310-
CENTRAL OREGON

CITY            SKY/WX      TMP DP  RH  WIND    PRES   REMARKS
BEND AIRPORT    LGT RAIN    45  39  79  SW13    29.77F WCI 39
MADRAS AIRPORT  LGT RAIN    48  43  83  S14G24  29.72F WCI 42
PRINEVILLE AP   LGT RAIN    46  43  89  SE9     29.77F
REDMOND AIRPORT LGT RAIN    45  41  86  S16     29.75F WCI 38
#BEND 1SW       N/A         41  40  96  SW2     N/A
#BEND-AWBREY    N/A         42  41  96  SW12G28 29.81F WCI 35
#BEND-KIM LN    N/A         43  41  93  SW10    29.73F
#CROOKED RVR RANN/A         45  42  89  SW1     29.76F
#CULVER         N/A         46  44  93  S10     29.68F
#LAKE BILLY CHINN/A         46  39  76  S9      29.81F
#POWELL BUTTE 3EN/A         48  41  77  SW16G30 N/A    WCI 42
#POWELL BUTTE   N/A         47  42  83  S17     29.42F WCI 40
#PRINEVILLE 3N  N/A         45  43  93  NE6     29.76F
#WARM SPRINGS   N/A         49  45  86  E1      29.69F


ORZ509-210310-
EAST SLOPES OF OREGON CASCADES

CITY            SKY/WX      TMP DP  RH  WIND    PRES   REMARKS
#BLUE BOX PASS  N/A         41  -10 11  CALM    N/A
#BLACK BUTTE RNCN/A         45  45  100 CALM    29.77F
#CAMP SHERMAN   N/A         45  44  96  CALM    29.73F
#LA PINE DOT    N/A         40  38  92  S3      N/A
#LA PINE 4NW    N/A         39  36  89  S1      29.95F
#LAVA BUTTE DOT N/A         39  38  96  SE7     N/A
#MT BACHELOR-MIDN/A         33  32  96  E37G55  N/A    WCI 18
#SISTERS AIRPOR N/A         44  44  100 CALM    30.17S
#SISTERS ODOT   N/A         44  N/A N/A W2      N/A
#SISTERS 3N     N/A         41  40  96  CALM    29.78F
#SUNRIVER       N/A         40  40  100 S3      29.74F
#TUMALO 3W      N/A         42  40  93  S10     29.67F
#WANOGA BUTTE D N/A         35  35  100 W16G26  N/A    WCI 25

$$

ORZ044-210310-
LOWER COLUMBIA BASIN...OREGON

CITY            SKY/WX      TMP DP  RH  WIND    PRES   REMARKS
HERMISTON       CLOUDY      51  43  74  SW6     29.62F
#BOARDMAN 3W    N/A         41  41  100 W2      29.35F
#BOARDMAN 8SW   N/A         42  40  93  CALM    29.63F
#ECHO 8SW       N/A         53  43  69  W7      29.59F
#IONE SCHOOL    N/A         55  41  59  SW13G33 29.63F
#IRRIGON 4NW    N/A         42  42  100 S1      N/A
#UMATILLA SCHOOLN/A         43  43  100 CALM    29.66F
#UMATILLA       N/A         47  43  86  CALM    29.60F
$$

ORZ507-210310-
NORTHERN FOOTHILLS OF THE BLUES

CITY            SKY/WX      TMP DP  RH  WIND    PRES   REMARKS
PENDLETON AIRPT LGT RAIN    48  41  77  S14     29.64F WCI 42
#ADAMS 3WNW     N/A         47  43  86  S5      29.69S
#ATHENA         N/A         47  43  86  SE6     29.70F
#CAYUSE         N/A         50  43  77  S17G26  29.66F
#HELIX SCHOOL   N/A         45  43  93  S12     29.69F WCI 39
#HELIX 3N       N/A         46  43  89  S23G30  29.63F WCI 38
#HOLDMAN 5SE    N/A         47  43  86  SE2     29.65F
#HOLDMAN 6E     N/A         46  43  89  NW14    29.47F WCI 40
#M-F GROVE ELEM N/A         51  40  66  SE7     29.62F
#M-FREEWATER 5SEN/A         50  42  74  E12     29.67F
#PENDLETON DNTN N/A         50  48  93  SW9     28.46F
#PDT AQUATIC CTRN/A         51  47  86  S9      29.64F
#PENDLETON 5NE  N/A         48  44  86  CALM    29.64F
#PENDLETON 7NW  N/A         50  42  74  S13     N/A
#PILOT ROCK     N/A         50  37  61  S21G35  29.68S
#TUTUILLA       N/A         51  43  74  S16G26  29.68F
#UMAPINE 2E     N/A         52  45  77  SE10    29.61F
#WESTON SCHOOL  N/A         45  38  76  SW13G26 29.65F WCI 39

$$

ORZ508-210310-
SOUTHERN FOOTHILLS OF THE BLUES

CITY            SKY/WX      TMP DP  RH  WIND    PRES   REMARKS
LEXINGTON       CLOUDY      54  45  71  S24G32  29.64F
#AJAX           N/A         49  39  68  S22G39  29.59F WCI 42
#CONDON SCHOOL  N/A         47  44  89  CALM    29.67S
#CONDON 5W      N/A         44  40  86  S21G35  29.65F WCI 36
#FOSSIL SCHOOL  N/A         46  43  89  SW6     29.71F
#HEPPNER EOC    N/A         50  42  74  S9G29   29.63F
#HEPPNER 4NE    N/A         47  41  79  E8      29.68F
#LEXINGTON 2SE  N/A         54  44  69  S9      29.63F
#MIKKALO        N/A         51  43  74  S17G30  29.62S
#OLEX 4N        N/A         52  47  83  SW20G26 29.61F
#RUGGS 5NE      N/A         46  41  83  S18G28  29.81S WCI 39
#RUGGS 2SW      N/A         47  41  79  SW18G30 29.71S WCI 40

$$

ORZ502-503-210310-
BLUE MOUNTAINS

CITY            SKY/WX      TMP DP  RH  WIND    PRES   REMARKS
MEACHAM         RAIN        37  35  92  CALM    29.71F FOG
#BATTLE MTN DOT N/A         35  35  100 SE13    N/A    WCI 26
#HARDMAN 10S    N/A         36  35  96  S7      29.93S
#HEPPNER 15SE   N/A         40  38  92  SE3     29.61S
#LADD CYN SMT   N/A         36  32  85  SE22    N/A    WCI 25
#LADD CREEK ODOTN/A         38  36  92  SW9     N/A
#LONG CREEK HS  N/A         41  40  96  CALM    29.74S
#N POWDER DOT   N/A         37  36  96  SE16G31 N/A    WCI 28
#PIKES PEAK     N/A         42  38  86  S31G45  27.99S WCI 31
#TOLLGATE       N/A         33  32  96  CALM    29.65F
#TROY SCHOOL    N/A         39  38  96  CALM    29.66F
#UKIAH          N/A         39  37  92  CALM    29.88S
#WESTON 4E      N/A         40  38  92  SE13    29.67F WCI 32
$$

ORZ505-210310-
JOHN DAY BASIN

CITY            SKY/WX      TMP DP  RH  WIND    PRES   REMARKS
JOHN DAY        LGT RAIN    42  37  82  SW14G24 29.83R WCI 35
#JOHN DAY KJDY  N/A         44  38  79  CALM    29.88R
#DAYVILLE SCHOOLN/A         32  29  89  CALM    30.16S
#MONUMENT HS    N/A         41  39  93  CALM    29.81R
#MT. VERNON 5SE N/A         37  35  92  NE2     29.78S
#WINLOCK        N/A         41  39  93  CALM    29.86F
$$

ORZ506-210310-
OCHOCO AND JOHN DAY HIGHLANDS

CITY            SKY/WX      TMP DP  RH  WIND    PRES   REMARKS
#HORSE RIDGE DO N/A         42  38  86  SE7     N/A
#KEYES SMT DOT  N/A         42  36  79  SW6     N/A
#PRAIRIE CITY   N/A         35  32  89  CALM    29.95R
#SENECA         N/A         34  N/A N/A SE8     N/A
#SENECA 9NW     N/A         32  31  96  CALM    29.93R
$$

ORZ049-210310-
GRANDE RONDE VALLEY

CITY            SKY/WX      TMP DP  RH  WIND    PRES   REMARKS
LA GRANDE       CLOUDY      41  32  70  S12     29.76F WCI 34
#COVE           N/A         43  37  79  CALM    30.03S
#COVE SCHOOL    N/A         42  39  89  S1      29.76F
#COVE 6NW       N/A         40  37  89  S5      29.86F
#ELGIN 3N       N/A         40  34  79  SW9     29.48F
#ELGIN 1E       N/A         40  36  85  S3      N/A
#IMBLER SCHOOL  N/A         39  36  89  S16     29.73F WCI 30
#ISLAND CITY 4N N/A         52  52  100 CALM    29.62S
#LADD CYN DOT   N/A         40  35  82  S18G29  N/A    WCI 31
#UNION 1S       N/A         41  37  86  S5      29.74F
$$

ORZ050-210310-
WALLOWA COUNTY

CITY            SKY/WX      TMP DP  RH  WIND    PRES   REMARKS
#ENTERPRISE AP  N/A         33  30  89  CALM    29.70F
#ENTERPRISE HS  N/A         34  32  92  CALM    29.76F
#IMNAHA SCHOOL  N/A         46  37  71  S15G26  29.76F WCI 40
#IMNAHA 10S     N/A         44  33  65  SW13G28 29.77F WCI 38
#JOSEPH 3N      N/A         32  31  96  W3      29.77F
#JOSEPH 3W      N/A         34  31  89  S1      29.59F
#LOSTINE        N/A         32  31  96  CALM    29.64F
#MT HOWARD 8000 N/A         29  27  92  W12G26  29.69R WCI 19
#PROMISE 1S     N/A         34  33  96  CALM    29.91F
#SHEEP RDG 7000 N/A         32  30  92  CALM    29.80S
#WALLOWA SCHOOL N/A         33  32  96  CALM    30.81F



$$



USA.gov is the U.S. government's official web portal to all federal, state and local government web resources and services.